TimeGMT,TemperatureF,Dew PointF,Humidity,Sea Level PressureIn,VisibilityMPH,Wind Direction,Wind SpeedMPH,Gust SpeedMPH,PrecipitationIn,Events,Conditions,WindDirDegrees,DateUTC
12:00 AM,81,70,61,30.08,22,East,17.3,,,,Partly Cloudy,100,2013-12-15 00:00:00
12:00 AM,80.6,69.8,70,30.06,6.2,East,20.7,-,N/A,,Scattered Clouds,90,2013-12-15 00:00:00
1:00 AM,80.6,69.8,70,30.06,6.2,East,18.4,-,N/A,,Scattered Clouds,90,2013-12-15 01:00:00
2:00 AM,80.6,66.2,61,30.09,6.2,East,18.4,32.2,N/A,,Partly Cloudy,80,2013-12-15 02:00:00
3:00 AM,80,66,54,30.09,22,East,16.1,,,,Partly Cloudy,90,2013-12-15 03:00:00
3:00 AM,80.6,66.2,61,30.06,6.2,East,16.1,-,N/A,,Partly Cloudy,90,2013-12-15 03:00:00
4:00 AM,80.6,68.0,65,30.06,6.2,East,19.6,-,N/A,,Scattered Clouds,90,2013-12-15 04:00:00
5:00 AM,80.6,69.8,70,30.04,6.2,East,17.3,-,N/A,,Scattered Clouds,90,2013-12-15 05:00:00
6:00 AM,80,70,65,30.04,5,East,16.1,,,Rain,Light Rain Showers,90,2013-12-15 06:00:00
6:00 AM,78.8,69.8,74,30.04,5.0,East,16.1,-,N/A,Rain,Light Rain Showers,90,2013-12-15 06:00:00
7:00 AM,80.6,69.8,70,30.01,6.2,East,19.6,-,N/A,,Partly Cloudy,80,2013-12-15 07:00:00
8:00 AM,80.6,71.6,74,30.01,6.2,East,13.8,-,N/A,,Scattered Clouds,80,2013-12-15 08:00:00
9:00 AM,79,72,72,30.02,22,East,19.6,,,Rain,Light Rain Showers,80,2013-12-15 09:00:00
9:00 AM,78.8,71.6,78,30.01,6.2,East,19.6,-,N/A,,Partly Cloudy,80,2013-12-15 09:00:00
10:00 AM,78.8,71.6,78,30.01,6.2,East,17.3,-,N/A,,Scattered Clouds,80,2013-12-15 10:00:00
11:00 AM,77.0,69.8,78,30.04,6.2,East,19.6,-,N/A,,Scattered Clouds,90,2013-12-15 11:00:00
12:00 PM,80,72,70,30.09,12,East,17.3,,,,Mostly Cloudy,80,2013-12-15 12:00:00
12:00 PM,80.6,71.6,74,30.09,6.2,East,17.3,-,N/A,Rain,Light Rain Showers,80,2013-12-15 12:00:00
1:00 PM,82.4,69.8,66,30.09,6.2,East,18.4,35.7,N/A,,Scattered Clouds,90,2013-12-15 13:00:00
2:00 PM,80.6,71.6,74,30.12,6.2,East,18.4,32.2,N/A,Rain,Light Rain Showers,100,2013-12-15 14:00:00
3:00 PM,82,70,60,30.12,11,East,20.7,,,Rain,Light Rain Showers,90,2013-12-15 15:00:00
3:00 PM,82.4,71.6,70,30.12,6.2,East,20.7,-,N/A,,Mostly Cloudy,90,2013-12-15 15:00:00
4:00 PM,84.2,71.6,66,30.09,6.2,East,18.4,31.1,N/A,,Mostly Cloudy,90,2013-12-15 16:00:00
5:00 PM,84.2,71.6,66,30.04,6.2,East,15.0,-,N/A,,Mostly Cloudy,90,2013-12-15 17:00:00
6:00 PM,82,72,64,30.04,4,East,15.0,,,Rain,Heavy Rain Showers,100,2013-12-15 18:00:00
6:00 PM,77.0,71.6,83,30.04,3.7,East,15.0,38.0,N/A,,Mostly Cloudy,100,2013-12-15 18:00:00
7:00 PM,77.0,71.6,83,30.04,3.7,East,15.0,32.2,N/A,Rain,Rain Showers,100,2013-12-15 19:00:00
8:00 PM,77.0,71.6,83,30.04,6.2,East,16.1,-,N/A,Rain,Light Rain Showers,100,2013-12-15 20:00:00
9:00 PM,77,71,78,30.06,5,East,15.0,,,Rain,Heavy Rain Showers,80,2013-12-15 21:00:00
9:00 PM,77.0,71.6,83,30.04,5.0,East,15.0,-,N/A,Rain,Rain Showers,80,2013-12-15 21:00:00
10:00 PM,78.8,68.0,69,30.04,6.2,East,23.0,-,N/A,Rain,Light Rain Showers,100,2013-12-15 22:00:00
11:00 PM,75.2,71.6,89,30.06,5.0,ESE,24.2,-,N/A,Rain,Rain Showers,110,2013-12-15 23:00:00